Location: Attenhofen
(48.3270°N, 10.1594°E)
Time: 00:02:35
(UTC+00:00)

Daily predictions for brighter satellites

Satellite Brightness Start Highest point End
(mag) Time Altitude Azimuth Time Altitude Azimuth Time Altitude Azimuth
USA 59 Rocket 3.1 03:08:36 11° ESE 03:08:36 11° ESE 03:08:52 10° ESE
SL-16 R/B 3.7 03:19:10 30° NE 03:19:28 30° NE 03:24:26 10° ESE
Cosmos 2082 Rocket 3.3 03:23:08 40° ENE 03:23:08 40° ENE 03:27:02 10° NE
USA 234 3.9 03:23:24 10° ENE 03:28:36 44° NNE 03:28:36 44° NNE
Cosmos 1980 Rocket 4.4 03:44:55 14° S 03:44:55 14° S 03:45:39 10° S
Cosmos 2369 4.4 03:51:16 45° SSE 03:51:16 45° SSE 03:55:06 10° SSE
NOSS 3-1 (C) 3.9 03:52:30 62° NW 03:54:02 86° NE 04:02:49 10° SE
Cosmos 841 Rocket 3.8 04:00:24 55° SSE 04:01:18 66° ESE 04:06:31 10° NNE
COSMOS 2455 3.0 04:07:00 57° SSW 04:07:00 57° SSW 04:12:04 10° SSE
Cosmos 2360 Rocket 3.4 04:09:27 22° N 04:12:25 37° NE 04:17:37 10° ESE
Cosmos 2333 Rocket 2.9 04:11:00 31° N 04:13:33 53° NE 04:19:09 10° SE
Cosmos 489 Rocket 4.5 04:08:37 10° SSW 04:14:54 80° ESE 04:21:12 10° NNE
ATLAS 3B R/B 4.3 04:14:24 22° NNW 04:18:01 30° NNE 04:24:40 10° ENE
Nadezhda 4 Rocket 3.9 04:11:55 10° S 04:18:14 88° W 04:24:33 10° N
Cosmos 1892 Rocket 4.1 04:18:50 10° S 04:23:06 58° E 04:27:27 10° NNE
Cosmos-2242 4.1 04:24:04 18° N 04:26:52 43° ENE 04:30:51 10° SSE
Cosmos 1898 Rocket 4.0 04:29:28 42° SW 04:29:28 42° SW 04:33:25 10° S
Cosmos 2219 Rocket 3.7 04:25:49 15° N 04:29:51 32° NE 04:34:53 10° ESE
COSMO-SKYMED 1 2.7 04:27:09 10° SSE 04:31:13 64° ENE 04:32:40 38° N
IRS-1D 3.5 04:28:41 10° NNE 04:33:43 82° ESE 04:38:49 10° SSW
Meteor 2-20 4.4 04:29:13 10° N 04:35:22 82° E 04:41:27 10° SSE
Cosmos 2322 Rocket 2.7 04:32:25 23° NNW 04:35:59 58° ENE 04:41:35 10° SE
Orbus 7S? 3.8 04:48:21 34° NE 04:48:21 34° NE 04:50:35 10° E
Cosmos 1937 Rocket 3.7 04:49:25 43° W 04:49:41 44° WSW 04:54:31 10° S
Cosmos 858 Rocket 4.5 04:49:23 40° NW 04:51:01 59° WSW 04:56:06 10° S
BREEZE M DEB (TANK) 4.2 04:50:05 11° S 04:51:35 17° SE 04:53:49 10° E
USA 59 Rocket 1.6 04:54:18 21° SW 04:54:18 21° SW 04:57:11 10° S
Meteor 2-3 Rocket 3.6 04:48:22 10° SSW 04:54:05 70° WNW 04:59:46 10° N
BREEZE-M DEB (TANK) 3.6 04:55:04 27° ESE 04:55:04 27° ESE 04:56:09 10° ESE
Meteor 1-26 Rocket 4.1 04:49:43 10° NNW 04:55:16 89° W 05:00:59 10° S
Cosmos 1484 Rocket 3.6 04:52:36 10° NNE 04:55:54 44° E 04:59:09 10° S
Meteor 2-20 Rocket 4.3 04:51:20 10° N 04:57:09 85° E 05:02:51 10° S
Cosmos 2058 Rocket 2.9 04:54:41 18° NNW 04:57:59 84° W 05:02:23 10° S
SKYMED 2 3.8 04:55:30 10° S 04:59:39 45° W 05:00:14 42° WNW
COSMOS 2406 3.2 04:55:16 14° SW 05:00:06 58° WNW 05:05:43 10° NNE
NOSS 3-1 (A) 4.0 04:57:15 24° NW 05:02:03 81° SW 05:10:56 10° SSE
SL-16 R/B 2.3 05:01:03 28° NW 05:03:52 56° WSW 05:09:22 10° S
Cosmos 2082 Rocket 2.8 05:05:01 31° WNW 05:05:54 32° NW 05:10:57 10° NNE
COSMOS 2428 4.5 05:02:02 10° N 05:06:45 26° NE 05:11:27 10° E
CZ-4 R/B 3.7 05:02:36 10° N 05:07:10 56° WNW 05:11:40 10° SSW
SeaSat 1 4.2 05:05:30 10° N 05:07:30 16° NNW 05:07:30 16° NNW
Cosmos 1627 Rocket 4.3 05:02:47 10° SSW 05:08:52 69° WNW 05:15:02 10° N
USA 234 3.9 05:05:50 10° ENE 05:11:56 43° N 05:15:57 21° NW
BREEZE-M DEB (TANK) 2.5 05:12:01 50° W 05:12:37 79° NNW 05:14:53 10° ENE
Okean 1 2.9 05:11:24 26° NNW 05:13:17 68° W 05:16:48 10° S
Helios 1A Rocket 2.8 05:12:27 10° S 05:15:37 40° W 05:15:55 39° W
Cosmos 1814 Rocket 4.2 05:11:19 10° SSW 05:16:31 73° ESE 05:21:49 10° NNE
NOAA 12 4.2 05:12:22 10° N 05:17:28 50° WNW 05:22:31 10° SW
DMSP B5D1-3 4.4 05:14:08 10° SSE 05:19:15 80° WSW 05:24:23 10° NNW
IRIDIUM 114 4.5 05:15:03 10° S 05:20:15 78° E 05:25:30 10° N
CBERS-1 4.4 05:16:25 10° NNE 05:21:31 68° ESE 05:26:35 10° S
Cosmos 2285 Rocket 4.0 05:17:26 10° NNW 05:23:51 86° WSW 05:30:16 10° SSE
BREEZE-M DEB (TANK) 2.7 05:23:25 34° WNW 05:24:28 71° N 05:29:37 10° E
BREEZE-M DEB (TANK) 3.1 05:24:35 24° WSW 05:26:19 51° S 05:33:07 10° ESE
Cosmos 2278 4.1 05:24:16 19° NW 05:27:51 42° WSW 05:33:06 10° S
IRIDIUM 103 4.3 05:24:11 10° S 05:29:25 88° W 05:34:40 10° N
SL-4 R/B 1.3 05:28:33 31° WNW 05:29:58 84° SSW 05:33:09 10° ESE
Cosmos 2151 3.9 05:27:26 10° SSE 05:31:22 48° E 05:35:20 10° NNE
Cosmos 1758 Rocket 3.6 05:28:43 10° S 05:33:08 86° E 05:37:33 10° N
Cosmos 2026 Rocket 4.2 05:28:23 10° SW 05:34:07 44° WNW 05:39:57 10° N
NOSS 8 (A) 4.1 05:33:10 28° NW 05:34:32 64° SW 05:37:47 10° SSE
CZ-2D R/B 4.4 05:32:11 10° NNE 05:35:11 37° E 05:38:09 10° SSE
Cosmos 2221 2.7 05:31:32 10° N 05:35:41 68° E 05:39:47 10° SSE
Thor Agena Rocket 3.9 05:34:39 10° NNE 05:39:42 68° ESE 05:44:42 10° S
Cosmos 1238 Rocket 4.3 05:40:08 10° NNE 05:42:33 24° ENE 05:44:56 10° SE
Cosmos 405 Rocket 2.2 05:39:40 10° SSW 05:42:53 59° WNW 05:46:09 10° N
Cosmos 1707 3.0 05:43:12 10° N 05:46:18 51° ENE 05:49:21 10° SSE
IRIDIUM 106 4.3 05:42:36 10° SSW 05:47:46 63° W 05:52:58 10° N
Cosmos 158 Rocket 3.9 05:43:18 10° SSW 05:48:38 75° WNW 05:53:53 10° NNE
KORONAS-FOTON 3.8 05:50:31 10° N 05:53:54 68° E 05:57:15 10° SSE
Cosmos 1626 Rocket 3.8 05:51:55 10° SSW 05:56:11 47° WNW 06:00:28 10° N
Cosmos 2360 Rocket 2.6 05:51:12 10° NW 05:56:28 42° WSW 06:01:42 10° S
S3M 4.1 05:50:19 10° N 05:56:33 83° E 06:02:41 10° S
Cosmos 2333 Rocket 3.1 05:53:03 12° NW 05:57:33 29° WSW 06:02:25 10° SSW
Cosmos 1553 Rocket 4.3 05:51:55 10° NNW 05:58:02 50° W 06:04:10 10° SSW
SMAP 3.0 05:55:23 10° NNE 06:00:04 82° WNW 06:04:43 10° SSW
Cosmos 1833 4.2 05:55:01 10° SSW 06:00:39 77° WNW 06:06:24 10° NNE
SL-08 R/B 4.1 05:58:26 10° SE 06:02:55 52° ENE 06:07:27 10° N
Cosmos-2242 4.3 06:00:32 10° NW 06:03:34 19° W 06:06:34 10° SW
Cosmos 1842 3.3 06:01:14 10° N 06:04:32 62° E 06:07:49 10° SSE
Landsat 7 3.8 06:00:40 10° NNE 06:05:21 88° WNW 06:10:01 10° SSW
COSMO-SKYMED 1 4.2 06:04:51 10° WSW 06:06:58 14° W 06:08:59 10° WNW
Cosmos 2237 Rocket 3.7 06:02:21 10° NNW 06:07:16 30° NE 06:12:10 10° ESE
Cosmos 1125 Rocket 3.5 06:03:11 10° NNW 06:08:28 75° WSW 06:13:39 10° SSE
ATLAS 3B R/B 3.3 06:02:27 10° NW 06:10:19 65° NE 06:17:47 10° SE
Meteor 1-10 Rocket 4.4 06:04:49 10° NNW 06:10:45 79° W 06:16:40 10° S
BREEZE-M DEB (TANK) 4.2 06:09:23 10° SW 06:11:35 36° SSE 06:14:41 10° E
Cosmos 2219 Rocket 2.5 06:08:33 10° NW 06:14:01 51° WSW 06:19:27 10° S
Meteor 1-19 Rocket 4.4 06:10:21 10° NNW 06:16:06 68° W 06:21:59 10° S
Cosmos 2322 Rocket 3.3 06:15:01 10° NW 06:19:37 26° WSW 06:24:12 10° SSW
BREEZE-M DEB (TANK) 3.9 06:05:30 10° W 06:21:34 82° N 06:25:37 10° E
Okean 1-7 Rocket 3.6 06:21:28 10° SSW 06:25:55 63° WNW 06:30:23 10° N
